Location: Sternwarte_Laufen
(47.9344°N, 12.9346°E)
Time: 16:37:49
(UTC+01:00)

Envisat - Visible Passes

Search period start: 30 January 2023 00:00
Search period end: 09 February 2023 00:00
Orbit: 763 x 765 km, 98.2° (Epoch: 30 January)

Date Brightness Start Highest point End Pass type
(mag) Time Alt. Az. Time Alt. Az. Time Alt. Az.
30 Jan 5.0 04:13:44 10° NNE 04:15:26 21° NNE 04:15:26 21° NNE visible
30 Jan 4.7 05:53:46 10° NNW 05:55:37 17° NW 05:55:37 17° NW visible
31 Jan 5.5 03:37:01 10° NNE 03:38:05 15° NE 03:38:05 15° NE visible
31 Jan 4.4 05:16:02 10° N 05:18:16 23° NNW 05:18:16 23° NNW visible
01 Feb 4.5 04:38:42 10° N 04:40:56 27° N 04:40:56 27° N visible
01 Feb 4.8 06:19:48 10° NNW 06:21:08 12° NW 06:21:08 12° NW visible
02 Feb 5.0 04:01:43 10° NNE 04:03:36 22° NNE 04:03:36 22° NNE visible
02 Feb 4.4 05:41:24 10° N 05:43:47 20° NW 05:43:47 20° NW visible
03 Feb 5.6 03:25:09 10° NE 03:26:16 15° NE 03:26:16 15° NE visible
03 Feb 4.2 05:03:49 10° N 05:06:27 28° NNW 05:06:27 28° NNW visible
04 Feb 4.4 04:26:36 10° NNE 04:29:07 30° NNE 04:29:07 30° NNE visible
04 Feb 4.7 06:07:07 10° NNW 06:09:19 15° NW 06:09:19 15° NW visible
05 Feb 5.0 03:49:44 10° NNE 03:51:47 23° NE 03:51:47 23° NE visible
05 Feb 4.2 05:29:06 10° N 05:31:59 25° NW 05:31:59 25° NW visible
06 Feb 5.7 03:13:23 10° NE 03:14:28 14° NE 03:14:28 14° NE visible
06 Feb 4.0 04:51:38 10° N 04:54:39 34° N 04:54:39 34° N visible
07 Feb 4.3 04:14:32 10° NNE 04:17:19 33° NNE 04:17:19 33° NNE visible
07 Feb 4.4 05:54:37 10° NNW 05:57:31 18° NW 05:57:31 18° NW visible
08 Feb 5.1 03:37:47 10° NNE 03:40:00 23° NE 03:40:00 23° NE visible
08 Feb 3.9 05:16:50 10° N 05:20:11 31° NW 05:20:11 31° NW visible
